Time,TemperatureF,DewpointF,PressureIn,WindDirection,WindDirectionDegrees,WindSpeedMPH,WindSpeedGustMPH,Humidity,HourlyPrecipIn,Conditions,Clouds,dailyrainin,SoftwareType,DateUTC
2013-02-16 00:02:00,26.0,13.0,-100.00,WSW,237,27.0,40.0,58,0.00,,,-99.99,,2013-02-16 07:02:00,
2013-02-16 00:11:00,26.0,13.0,-100.00,SW,236,28.0,40.0,58,0.00,,,-99.99,,2013-02-16 07:11:00,
2013-02-16 00:21:00,26.0,14.0,-100.00,SW,236,27.0,43.0,58,0.00,,,-99.99,,2013-02-16 07:21:00,
2013-02-16 00:31:00,26.0,13.0,-100.00,SW,236,24.0,40.0,58,0.00,,,-99.99,,2013-02-16 07:31:00,
2013-02-16 00:42:00,26.0,14.0,-100.00,SW,236,26.0,44.0,61,0.00,,,-99.99,,2013-02-16 07:42:00,
2013-02-16 00:52:00,25.0,15.0,-100.00,SW,234,30.0,51.0,64,0.00,,,-99.99,,2013-02-16 07:52:00,
2013-02-16 01:01:00,25.0,14.0,-100.00,SW,232,34.0,46.0,62,0.00,,,-99.99,,2013-02-16 08:01:00,
2013-02-16 01:11:00,26.0,15.0,-100.00,SW,230,34.0,50.0,62,0.00,,,-99.99,,2013-02-16 08:11:00,
2013-02-16 01:21:00,26.0,15.0,-100.00,SW,232,34.0,54.0,62,0.00,,,-99.99,,2013-02-16 08:21:00,
2013-02-16 01:31:00,25.0,15.0,-100.00,WSW,237,28.0,42.0,64,0.00,,,-99.99,,2013-02-16 08:31:00,
2013-02-16 01:41:00,26.0,14.0,-100.00,SW,234,29.0,54.0,62,0.00,,,-99.99,,2013-02-16 08:41:00,
2013-02-16 01:52:00,25.0,15.0,-100.00,SW,232,35.0,50.0,67,0.01,,,-99.99,,2013-02-16 08:52:00,
2013-02-16 02:01:00,25.0,15.0,-100.00,SW,232,34.0,49.0,64,0.00,,,-99.99,,2013-02-16 09:01:00,
2013-02-16 02:11:00,25.0,15.0,-100.00,SW,230,35.0,49.0,64,0.00,,,-99.99,,2013-02-16 09:11:00,
2013-02-16 02:21:00,25.0,15.0,-100.00,SW,232,34.0,50.0,64,0.01,,,-99.99,,2013-02-16 09:21:00,
2013-02-16 02:31:00,25.0,15.0,-100.00,SW,232,32.0,52.0,63,0.00,,,-99.99,,2013-02-16 09:31:00,
2013-02-16 02:42:00,25.0,14.0,-100.00,SW,232,30.0,52.0,62,0.00,,,-99.99,,2013-02-16 09:42:00,
2013-02-16 02:51:00,25.0,14.0,-100.00,SW,230,34.0,50.0,62,0.00,,,-99.99,,2013-02-16 09:51:00,
2013-02-16 03:01:00,25.0,14.0,-100.00,SW,230,32.0,48.0,62,0.00,,,-99.99,,2013-02-16 10:01:00,
2013-02-16 03:11:00,26.0,13.0,-100.00,SW,229,35.0,51.0,59,0.00,,,-99.99,,2013-02-16 10:11:00,
2013-02-16 03:21:00,26.0,14.0,-100.00,SW,233,32.0,49.0,60,0.00,,,-99.99,,2013-02-16 10:21:00,
2013-02-16 03:31:00,25.0,15.0,-100.00,SW,230,33.0,49.0,64,0.00,,,-99.99,,2013-02-16 10:31:00,
2013-02-16 03:41:00,26.0,14.0,-100.00,SW,226,34.0,56.0,61,0.00,,,-99.99,,2013-02-16 10:41:00,
2013-02-16 03:51:00,25.0,15.0,-100.00,SW,227,37.0,52.0,64,0.00,,,-99.99,,2013-02-16 10:51:00,
2013-02-16 04:02:00,25.0,15.0,-100.00,SW,224,40.0,57.0,64,0.00,,,-99.99,,2013-02-16 11:02:00,
2013-02-16 04:11:00,26.0,15.0,-100.00,SW,226,40.0,57.0,63,0.00,,,-99.99,,2013-02-16 11:11:00,
2013-02-16 04:22:00,26.0,15.0,-100.00,SW,233,35.0,49.0,60,0.00,,,-99.99,,2013-02-16 11:22:00,
2013-02-16 04:32:00,27.0,14.0,-100.00,SW,230,32.0,49.0,59,0.00,,,-99.99,,2013-02-16 11:32:00,
2013-02-16 04:42:00,27.0,13.0,-100.00,SW,233,32.0,48.0,57,0.00,,,-99.99,,2013-02-16 11:42:00,
2013-02-16 04:52:00,27.0,14.0,-100.00,SW,230,33.0,50.0,58,0.00,,,-99.99,,2013-02-16 11:52:00,
2013-02-16 05:01:00,27.0,14.0,-100.00,SW,230,35.0,52.0,58,0.00,,,-99.99,,2013-02-16 12:01:00,
2013-02-16 05:12:00,27.0,14.0,-100.00,SW,232,35.0,52.0,59,0.00,,,-99.99,,2013-02-16 12:12:00,
2013-02-16 05:22:00,27.0,14.0,-100.00,SW,232,34.0,57.0,57,0.00,,,-99.99,,2013-02-16 12:22:00,
2013-02-16 05:32:00,27.0,14.0,-100.00,SW,230,37.0,56.0,57,0.00,,,-99.99,,2013-02-16 12:32:00,
2013-02-16 05:42:00,27.0,14.0,-100.00,SW,233,31.0,47.0,57,0.00,,,-99.99,,2013-02-16 12:42:00,
2013-02-16 05:52:00,28.0,14.0,-100.00,SW,233,34.0,47.0,55,0.00,,,-99.99,,2013-02-16 12:52:00,
2013-02-16 06:02:00,27.0,15.0,-100.00,SW,234,32.0,46.0,58,0.00,,,-99.99,,2013-02-16 13:02:00,
2013-02-16 06:11:00,28.0,14.0,-100.00,SW,234,32.0,44.0,55,0.00,,,-99.99,,2013-02-16 13:11:00,
2013-02-16 06:21:00,28.0,13.0,-100.00,SW,234,32.0,47.0,53,0.00,,,-99.99,,2013-02-16 13:21:00,
2013-02-16 06:31:00,29.0,14.0,-100.00,SW,236,31.0,45.0,53,0.00,,,-99.99,,2013-02-16 13:31:00,
2013-02-16 06:41:00,29.0,14.0,-100.00,SW,236,32.0,52.0,54,0.00,,,-99.99,,2013-02-16 13:41:00,
2013-02-16 06:51:00,29.0,14.0,-100.00,WSW,239,31.0,46.0,52,0.00,,,-99.99,,2013-02-16 13:51:00,
2013-02-16 07:01:00,30.0,14.0,-100.00,WSW,241,32.0,45.0,52,0.00,,,-99.99,,2013-02-16 14:01:00,
2013-02-16 07:11:00,30.0,13.0,-100.00,WSW,239,29.0,45.0,49,0.00,,,-99.99,,2013-02-16 14:11:00,
2013-02-16 07:21:00,30.0,13.0,-100.00,WSW,244,27.0,43.0,50,0.00,,,-99.99,,2013-02-16 14:21:00,
2013-02-16 07:32:00,31.0,13.0,-100.00,WSW,248,26.0,40.0,47,0.00,,,-99.99,,2013-02-16 14:32:00,
2013-02-16 07:41:00,31.0,14.0,-100.00,WSW,248,27.0,40.0,49,0.00,,,-99.99,,2013-02-16 14:41:00,
2013-02-16 07:52:00,31.0,13.0,-100.00,WSW,246,28.0,38.0,47,0.00,,,-99.99,,2013-02-16 14:52:00,
2013-02-16 08:01:00,31.0,12.0,-100.00,WSW,248,27.0,35.0,45,0.00,,,-99.99,,2013-02-16 15:01:00,
2013-02-16 08:11:00,31.0,12.0,-100.00,WSW,250,27.0,37.0,46,0.00,,,-99.99,,2013-02-16 15:11:00,
2013-02-16 08:21:00,31.0,13.0,-100.00,WSW,250,26.0,37.0,47,0.00,,,-99.99,,2013-02-16 15:21:00,
2013-02-16 08:32:00,31.0,13.0,-100.00,WSW,248,22.0,37.0,47,0.00,,,-99.99,,2013-02-16 15:32:00,
2013-02-16 08:41:00,31.0,13.0,-100.00,WSW,248,24.0,40.0,48,0.00,,,-99.99,,2013-02-16 15:41:00,
2013-02-16 08:51:00,31.0,13.0,-100.00,WSW,250,24.0,37.0,45,0.00,,,-99.99,,2013-02-16 15:51:00,
2013-02-16 09:01:00,31.0,14.0,-100.00,WSW,241,24.0,43.0,48,0.00,,,-99.99,,2013-02-16 16:01:00,
2013-02-16 09:11:00,31.0,14.0,-100.00,WSW,243,26.0,43.0,48,0.00,,,-99.99,,2013-02-16 16:11:00,
2013-02-16 09:21:00,32.0,14.0,-100.00,WSW,244,26.0,42.0,47,0.00,,,-99.99,,2013-02-16 16:21:00,
2013-02-16 09:32:00,31.0,14.0,-100.00,WSW,241,25.0,40.0,48,0.00,,,-99.99,,2013-02-16 16:32:00,
2013-02-16 09:41:00,31.0,14.0,-100.00,WSW,241,27.0,43.0,48,0.00,,,-99.99,,2013-02-16 16:41:00,
2013-02-16 09:51:00,32.0,14.0,-100.00,WSW,239,29.0,42.0,47,0.00,,,-99.99,,2013-02-16 16:51:00,
2013-02-16 10:01:00,32.0,15.0,-100.00,SW,236,30.0,51.0,48,0.00,,,-99.99,,2013-02-16 17:01:00,
2013-02-16 10:11:00,32.0,15.0,-100.00,SW,230,35.0,48.0,49,0.00,,,-99.99,,2013-02-16 17:11:00,
2013-02-16 10:21:00,33.0,13.0,-100.00,SW,234,28.0,42.0,43,0.00,,,-99.99,,2013-02-16 17:21:00,
2013-02-16 10:32:00,34.0,14.0,-100.00,WSW,237,27.0,41.0,44,0.00,,,-99.99,,2013-02-16 17:32:00,
2013-02-16 10:41:00,34.0,14.0,-100.00,WSW,240,24.0,40.0,44,0.00,,,-99.99,,2013-02-16 17:41:00,
2013-02-16 10:52:00,34.0,14.0,-100.00,WSW,244,24.0,38.0,44,0.00,,,-99.99,,2013-02-16 17:52:00,
2013-02-16 11:02:00,34.0,15.0,-100.00,WSW,248,22.0,39.0,44,0.00,,,-99.99,,2013-02-16 18:02:00,
2013-02-16 11:11:00,34.0,15.0,-100.00,WSW,247,23.0,38.0,45,0.00,,,-99.99,,2013-02-16 18:11:00,
2013-02-16 11:21:00,35.0,15.0,-100.00,WSW,250,23.0,39.0,45,0.00,,,-99.99,,2013-02-16 18:21:00,
2013-02-16 11:33:00,35.0,15.0,-100.00,WSW,244,24.0,37.0,43,0.00,,,-99.99,,2013-02-16 18:33:00,
2013-02-16 11:42:00,34.0,16.0,-100.00,WSW,243,24.0,37.0,46,0.00,,,-99.99,,2013-02-16 18:42:00,
2013-02-16 11:51:00,35.0,16.0,-100.00,WSW,256,29.0,45.0,46,0.00,,,-99.99,,2013-02-16 18:51:00,
2013-02-16 12:02:00,36.0,14.0,-100.00,WSW,254,24.0,36.0,41,0.00,,,-99.99,,2013-02-16 19:02:00,
2013-02-16 12:11:00,36.0,14.0,-100.00,WSW,250,23.0,35.0,40,0.00,,,-99.99,,2013-02-16 19:11:00,
2013-02-16 12:21:00,36.0,15.0,-100.00,WSW,241,24.0,38.0,42,0.00,,,-99.99,,2013-02-16 19:21:00,
2013-02-16 12:31:00,36.0,16.0,-100.00,WSW,240,26.0,40.0,44,0.00,,,-99.99,,2013-02-16 19:31:00,
2013-02-16 12:42:00,36.0,15.0,-100.00,WSW,237,26.0,41.0,42,0.00,,,-99.99,,2013-02-16 19:42:00,
2013-02-16 12:52:00,36.0,17.0,-100.00,SW,236,28.0,38.0,44,0.00,,,-99.99,,2013-02-16 19:52:00,
2013-02-16 13:01:00,36.0,16.0,-100.00,SW,236,27.0,45.0,43,0.00,,,-99.99,,2013-02-16 20:01:00,
2013-02-16 13:11:00,36.0,16.0,-100.00,SW,233,29.0,46.0,43,0.00,,,-99.99,,2013-02-16 20:11:00,
2013-02-16 13:21:00,37.0,14.0,-100.00,WSW,237,23.0,36.0,37,0.00,,,-99.99,,2013-02-16 20:21:00,
2013-02-16 13:32:00,37.0,16.0,-100.00,SW,236,24.0,37.0,41,0.00,,,-99.99,,2013-02-16 20:32:00,
2013-02-16 13:42:00,37.0,15.0,-100.00,SW,233,25.0,42.0,40,0.00,,,-99.99,,2013-02-16 20:42:00,
2013-02-16 13:52:00,38.0,14.0,-100.00,WSW,243,22.0,37.0,37,0.00,,,-99.99,,2013-02-16 20:52:00,
2013-02-16 14:02:00,37.0,13.0,-100.00,WSW,247,24.0,37.0,36,0.00,,,-99.99,,2013-02-16 21:02:00,
2013-02-16 14:11:00,37.0,13.0,-100.00,WSW,246,24.0,36.0,36,0.00,,,-99.99,,2013-02-16 21:11:00,
2013-02-16 14:21:00,37.0,14.0,-100.00,WSW,248,24.0,40.0,37,0.00,,,-99.99,,2013-02-16 21:21:00,
2013-02-16 14:31:00,36.0,13.0,-100.00,WSW,248,26.0,39.0,38,0.00,,,-99.99,,2013-02-16 21:31:00,
2013-02-16 14:41:00,36.0,13.0,-100.00,WSW,250,27.0,44.0,38,0.00,,,-99.99,,2013-02-16 21:41:00,
2013-02-16 14:52:00,36.0,13.0,-100.00,WSW,256,29.0,49.0,38,0.00,,,-99.99,,2013-02-16 21:52:00,
2013-02-16 15:01:00,36.0,13.0,-100.00,WSW,253,27.0,40.0,38,0.00,,,-99.99,,2013-02-16 22:01:00,
2013-02-16 15:11:00,36.0,13.0,-100.00,WSW,253,27.0,39.0,38,0.00,,,-99.99,,2013-02-16 22:11:00,
2013-02-16 15:21:00,36.0,12.0,-100.00,WSW,253,24.0,32.0,35,0.00,,,-99.99,,2013-02-16 22:21:00,
2013-02-16 15:32:00,36.0,13.0,-100.00,WSW,253,24.0,34.0,37,0.00,,,-99.99,,2013-02-16 22:32:00,
2013-02-16 15:42:00,36.0,11.0,-100.00,WSW,254,24.0,40.0,34,0.00,,,-99.99,,2013-02-16 22:42:00,
2013-02-16 15:51:00,36.0,11.0,-100.00,WSW,253,24.0,38.0,34,0.00,,,-99.99,,2013-02-16 22:51:00,
2013-02-16 16:02:00,36.0,11.0,-100.00,WSW,256,24.0,37.0,35,0.00,,,-99.99,,2013-02-16 23:02:00,
2013-02-16 16:11:00,36.0,9.0,-100.00,WSW,254,24.0,42.0,33,0.00,,,-99.99,,2013-02-16 23:11:00,
2013-02-16 16:21:00,36.0,10.0,-100.00,WSW,254,23.0,36.0,34,0.00,,,-99.99,,2013-02-16 23:21:00,
2013-02-16 16:31:00,36.0,9.0,-100.00,WSW,257,26.0,40.0,31,0.00,,,-99.99,,2013-02-16 23:31:00,
2013-02-16 16:42:00,36.0,8.0,-100.00,WSW,254,23.0,40.0,30,0.00,,,-99.99,,2013-02-16 23:42:00,
2013-02-16 16:52:00,37.0,6.0,-100.00,WSW,251,24.0,38.0,28,0.00,,,-99.99,,2013-02-16 23:52:00,
2013-02-16 17:02:00,37.0,5.0,-100.00,WSW,253,24.0,37.0,26,0.00,,,-99.99,,2013-02-17 00:02:00,
2013-02-16 17:12:00,37.0,5.0,-100.00,WSW,253,24.0,37.0,26,0.00,,,-99.99,,2013-02-17 00:12:00,
2013-02-16 17:21:00,36.0,7.0,-100.00,SW,234,26.0,45.0,29,0.00,,,-99.99,,2013-02-17 00:21:00,
2013-02-16 17:32:00,35.0,5.0,-100.00,WSW,237,24.0,42.0,28,0.00,,,-99.99,,2013-02-17 00:32:00,
2013-02-16 17:41:00,35.0,7.0,-100.00,WSW,239,27.0,41.0,30,0.00,,,-99.99,,2013-02-17 00:41:00,
2013-02-16 17:51:00,34.0,8.0,-100.00,WSW,241,26.0,49.0,32,0.00,,,-99.99,,2013-02-17 00:51:00,
2013-02-16 18:01:00,34.0,9.0,-100.00,WSW,243,27.0,49.0,34,0.00,,,-99.99,,2013-02-17 01:01:00,
2013-02-16 18:11:00,34.0,9.0,-100.00,WSW,241,29.0,45.0,35,0.00,,,-99.99,,2013-02-17 01:11:00,
2013-02-16 18:21:00,34.0,8.0,-100.00,WSW,239,27.0,46.0,34,0.00,,,-99.99,,2013-02-17 01:21:00,
2013-02-16 18:31:00,34.0,9.0,-100.00,SW,233,31.0,49.0,35,0.00,,,-99.99,,2013-02-17 01:31:00,
2013-02-16 18:41:00,34.0,9.0,-100.00,SW,236,31.0,48.0,34,0.00,,,-99.99,,2013-02-17 01:41:00,
2013-02-16 18:52:00,35.0,8.0,-100.00,SW,233,36.0,57.0,32,0.00,,,-99.99,,2013-02-17 01:52:00,
2013-02-16 19:01:00,35.0,8.0,-100.00,SW,233,35.0,52.0,33,0.00,,,-99.99,,2013-02-17 02:01:00,
2013-02-16 19:11:00,35.0,8.0,-100.00,SW,230,39.0,57.0,32,0.00,,,-99.99,,2013-02-17 02:11:00,
2013-02-16 19:21:00,35.0,8.0,-100.00,SW,229,39.0,55.0,32,0.00,,,-99.99,,2013-02-17 02:21:00,
2013-02-16 19:31:00,35.0,8.0,-100.00,SW,229,37.0,51.0,32,0.00,,,-99.99,,2013-02-17 02:31:00,
2013-02-16 19:41:00,35.0,7.0,-100.00,SW,233,34.0,54.0,30,0.00,,,-99.99,,2013-02-17 02:41:00,
2013-02-16 19:52:00,35.0,7.0,-100.00,WSW,239,30.0,47.0,31,0.00,,,-99.99,,2013-02-17 02:52:00,
2013-02-16 20:02:00,35.0,7.0,-100.00,SW,234,30.0,46.0,31,0.00,,,-99.99,,2013-02-17 03:02:00,
2013-02-16 20:11:00,35.0,7.0,-100.00,SW,236,28.0,42.0,31,0.00,,,-99.99,,2013-02-17 03:11:00,
2013-02-16 20:21:00,34.0,8.0,-100.00,SW,234,28.0,45.0,32,0.00,,,-99.99,,2013-02-17 03:21:00,
2013-02-16 20:31:00,34.0,8.0,-100.00,SW,232,27.0,45.0,33,0.00,,,-99.99,,2013-02-17 03:31:00,
2013-02-16 20:42:00,34.0,8.0,-100.00,SW,230,31.0,48.0,34,0.00,,,-99.99,,2013-02-17 03:42:00,
2013-02-16 20:51:00,33.0,8.0,-100.00,SW,222,32.0,48.0,34,0.00,,,-99.99,,2013-02-17 03:51:00,
2013-02-16 21:01:00,33.0,8.0,-100.00,SW,220,31.0,46.0,34,0.00,,,-99.99,,2013-02-17 04:01:00,
2013-02-16 21:11:00,34.0,8.0,-100.00,SW,219,28.0,47.0,34,0.00,,,-99.99,,2013-02-17 04:11:00,
2013-02-16 21:21:00,33.0,8.0,-100.00,SW,219,17.0,31.0,34,0.00,,,-99.99,,2013-02-17 04:21:00,
2013-02-16 21:31:00,33.0,9.0,-100.00,SSW,195,11.0,28.0,36,0.00,,,-99.99,,2013-02-17 04:31:00,
2013-02-16 21:41:00,33.0,8.0,-100.00,SSW,200,7.0,17.0,33,0.00,,,-99.99,,2013-02-17 04:41:00,
2013-02-16 21:51:00,33.0,8.0,-100.00,ESE,106,7.0,19.0,34,0.00,,,-99.99,,2013-02-17 04:51:00,
2013-02-16 22:01:00,33.0,8.0,-100.00,South,171,9.0,34.0,34,0.00,,,-99.99,,2013-02-17 05:01:00,
2013-02-16 22:12:00,32.0,7.0,-100.00,East,95,7.0,14.0,34,0.00,,,-99.99,,2013-02-17 05:12:00,
2013-02-16 22:22:00,33.0,8.0,-100.00,SE,124,12.0,23.0,34,0.00,,,-99.99,,2013-02-17 05:22:00,
2013-02-16 22:33:00,32.0,8.0,-100.00,SSW,202,8.0,24.0,35,0.00,,,-99.99,,2013-02-17 05:33:00,
2013-02-16 22:42:00,32.0,8.0,-100.00,SSW,205,10.0,26.0,36,0.00,,,-99.99,,2013-02-17 05:42:00,
2013-02-16 22:52:00,32.0,8.0,-100.00,SW,229,19.0,34.0,36,0.00,,,-99.99,,2013-02-17 05:52:00,
2013-02-16 23:02:00,32.0,8.0,-100.00,SW,227,26.0,39.0,36,0.00,,,-99.99,,2013-02-17 06:02:00,
2013-02-16 23:11:00,32.0,9.0,-100.00,SW,224,26.0,38.0,37,0.00,,,-99.99,,2013-02-17 06:11:00,
2013-02-16 23:21:00,32.0,9.0,-100.00,SW,230,24.0,38.0,38,0.00,,,-99.99,,2013-02-17 06:21:00,
2013-02-16 23:31:00,32.0,8.0,-100.00,SW,233,17.0,30.0,37,0.00,,,-99.99,,2013-02-17 06:31:00,
2013-02-16 23:41:00,33.0,8.0,-100.00,SW,234,20.0,30.0,35,0.00,,,-99.99,,2013-02-17 06:41:00,
2013-02-16 23:51:00,33.0,7.0,-100.00,SW,230,20.0,39.0,34,0.00,,,-99.99,,2013-02-17 06:51:00,